• In Hungary
  • List of Countries
  • For 7 days
  • Water Temperature
  • Satellite Maps
  • Weather Map
  • News
  • Weather Widgets
  • user-avatar
    Login

    Hourly Weather Chucheve

    Today, 16 December, Saturday

    Time Temperature Precipitation Wind Pressure Humidity
    00:00 +2°C° 0 mm 3 mps 736 mmHg 92%
    01:00 +2°C° 0 mm 2 mps 736 mmHg 93%
    02:00 +2°C° 0 mm 2 mps 736 mmHg 93%
    03:00 +2°C° 0.1 mm 2 mps 736 mmHg 93%
    04:00 +3°C° 0.1 mm 1 mps 736 mmHg 92%
    05:00 +2°C° 0.1 mm 1 mps 735 mmHg 92%
    06:00 +2°C° 0.9 mm 1 mps 735 mmHg 92%
    07:00 +3°C° 0.9 mm 1 mps 735 mmHg 93%
    08:00 +1°C° 0 mm 2 mps 734 mmHg 93%
    09:00 +1°C° 1.2 mm 2 mps 734 mmHg 93%
    10:00 0°C° 1.2 mm 3 mps 734 mmHg 93%
    11:00 0°C° 1.2 mm 3 mps 734 mmHg 93%
    12:00 0°C° 0.4 mm 3 mps 734 mmHg 93%
    13:00 0°C° 0.4 mm 3 mps 734 mmHg 94%
    14:00 +1°C° 0.4 mm 3 mps 734 mmHg 94%
    15:00 0°C° 0.2 mm 3 mps 735 mmHg 94%
    16:00 0°C° 0.2 mm 3 mps 735 mmHg 94%
    17:00 0°C° 0.2 mm 3 mps 736 mmHg 94%
    18:00 0°C° 0.3 mm 3 mps 736 mmHg 93%
    19:00 -1°C° 0.3 mm 4 mps 737 mmHg 93%
    20:00 -1°C° 0.3 mm 4 mps 738 mmHg 92%
    21:00 -1°C° 0.1 mm 4 mps 739 mmHg 92%
    22:00 -1°C° 0.1 mm 4 mps 740 mmHg 91%
    23:00 -2°C° 0.1 mm 4 mps 740 mmHg 91%

    Tomorrow, 17 December, Sunday

    Time Temperature Precipitation Wind Pressure Humidity
    00:00 -2°C° 0 mm 4 mps 741 mmHg 91%
    01:00 -2°C° 0 mm 4 mps 742 mmHg 92%
    02:00 -2°C° 0 mm 3 mps 742 mmHg 93%
    03:00 -2°C° 0 mm 3 mps 743 mmHg 93%
    04:00 -4°C° 0 mm 3 mps 743 mmHg 94%
    05:00 -3°C° 0 mm 2 mps 744 mmHg 94%
    06:00 -3°C° 0 mm 2 mps 744 mmHg 94%
    07:00 -4°C° 0 mm 2 mps 745 mmHg 94%
    08:00 -4°C° 0 mm 2 mps 745 mmHg 94%
    09:00 -3°C° 0 mm 2 mps 746 mmHg 92%
    10:00 -2°C° 0 mm 2 mps 746 mmHg 89%
    11:00 +1°C° 0 mm 1 mps 747 mmHg 87%
    12:00 +1°C° 0 mm 1 mps 747 mmHg 87%
    13:00 +1°C° 0 mm 1 mps 747 mmHg 86%
    14:00 +2°C° 0 mm 1 mps 747 mmHg 86%
    15:00 +1°C° 0 mm 1 mps 748 mmHg 88%
    16:00 0°C° 0 mm 1 mps 748 mmHg 90%
    17:00 -1°C° 0 mm 1 mps 748 mmHg 92%
    18:00 -1°C° 0 mm 1 mps 749 mmHg 93%
    19:00 -1°C° 0 mm 1 mps 749 mmHg 93%
    20:00 0°C° 0 mm 1 mps 750 mmHg 93%
    21:00 0°C° 0 mm 1 mps 750 mmHg 93%
    22:00 0°C° 0 mm 1 mps 750 mmHg 92%
    23:00 0°C° 0 mm 1 mps 750 mmHg 92%

    Day after tomorrow, 18 December, Monday

    Time Temperature Precipitation Wind Pressure Humidity
    00:00 0°C° 0 mm 1 mps 750 mmHg 91%
    01:00 -2°C° 0 mm 2 mps 751 mmHg 90%
    02:00 -2°C° 0 mm 2 mps 751 mmHg 89%
    03:00 -2°C° 0 mm 2 mps 751 mmHg 89%
    04:00 -3°C° 0 mm 2 mps 751 mmHg 89%
    05:00 -3°C° 0 mm 2 mps 751 mmHg 89%
    06:00 -3°C° 0 mm 2 mps 751 mmHg 90%
    07:00 -3°C° 0 mm 2 mps 751 mmHg 91%
    08:00 -4°C° 0 mm 2 mps 752 mmHg 92%
    09:00 -3°C° 0 mm 2 mps 752 mmHg 90%
    10:00 -3°C° 0 mm 2 mps 752 mmHg 88%
    11:00 -2°C° 0 mm 2 mps 752 mmHg 86%
    12:00 -2°C° 0 mm 2 mps 752 mmHg 85%
    13:00 -2°C° 0 mm 2 mps 752 mmHg 84%
    14:00 -2°C° 0 mm 2 mps 752 mmHg 83%
    15:00 -2°C° 0 mm 2 mps 752 mmHg 85%
    16:00 -3°C° 0 mm 2 mps 753 mmHg 87%
    17:00 -3°C° 0 mm 2 mps 753 mmHg 89%
    18:00 -3°C° 0 mm 2 mps 753 mmHg 90%
    19:00 -3°C° 0 mm 2 mps 753 mmHg 91%
    20:00 -4°C° 0 mm 2 mps 754 mmHg 92%
    21:00 -4°C° 0 mm 2 mps 754 mmHg 92%
    22:00 -4°C° 0 mm 2 mps 754 mmHg 93%
    23:00 -4°C° 0 mm 2 mps 754 mmHg 93%

    19 December, Tuesday

    Time Temperature Precipitation Wind Pressure Humidity
    00:00 -4°C° 0 mm 2 mps 754 mmHg 93%
    01:00 -6°C° 0 mm 3 mps 754 mmHg 93%
    02:00 -6°C° 0 mm 3 mps 755 mmHg 93%
    03:00 -6°C° 0 mm 3 mps 755 mmHg 93%
    04:00 -6°C° 0 mm 3 mps 755 mmHg 93%
    05:00 -6°C° 0 mm 3 mps 755 mmHg 93%
    06:00 -6°C° 0 mm 3 mps 755 mmHg 93%
    07:00 -6°C° 0 mm 3 mps 755 mmHg 93%
    08:00 -6°C° 0 mm 3 mps 755 mmHg 93%
    09:00 -6°C° 0 mm 3 mps 756 mmHg 91%
    10:00 -5°C° 0 mm 3 mps 756 mmHg 89%
    11:00 -5°C° 0 mm 3 mps 756 mmHg 88%
    12:00 -5°C° 0 mm 3 mps 756 mmHg 86%
    13:00 -4°C° 0 mm 3 mps 756 mmHg 85%
    14:00 -4°C° 0 mm 3 mps 755 mmHg 84%
    15:00 -4°C° 0 mm 3 mps 756 mmHg 86%
    16:00 -5°C° 0 mm 3 mps 756 mmHg 87%
    17:00 -5°C° 0 mm 3 mps 756 mmHg 89%
    18:00 -5°C° 0 mm 3 mps 756 mmHg 89%
    19:00 -5°C° 0 mm 3 mps 756 mmHg 89%
    20:00 -5°C° 0 mm 3 mps 756 mmHg 89%
    21:00 -5°C° 0 mm 3 mps 755 mmHg 89%
    22:00 -6°C° 0 mm 3 mps 755 mmHg 89%
    23:00 -6°C° 0 mm 3 mps 755 mmHg 89%

    20 December, Wednesday

    Time Temperature Precipitation Wind Pressure Humidity
    00:00 -5°C° 0.1 mm 3 mps 755 mmHg 89%
    01:00 -5°C° 0.1 mm 3 mps 754 mmHg 90%
    02:00 -4°C° 0.1 mm 2 mps 754 mmHg 90%
    03:00 -4°C° 0.1 mm 2 mps 754 mmHg 91%
    04:00 -4°C° 0.1 mm 2 mps 754 mmHg 92%
    05:00 -4°C° 0.1 mm 2 mps 753 mmHg 93%
    06:00 -4°C° 0 mm 2 mps 753 mmHg 94%
    07:00 -4°C° 0 mm 2 mps 753 mmHg 94%
    08:00 -2°C° 0 mm 1 mps 753 mmHg 95%
    09:00 -2°C° 0 mm 1 mps 754 mmHg 93%
    10:00 -1°C° 0 mm 1 mps 754 mmHg 92%
    11:00 -1°C° 0 mm 1 mps 754 mmHg 90%
    12:00 -1°C° 0 mm 1 mps 754 mmHg 89%
    13:00 0°C° 0 mm 1 mps 754 mmHg 89%
    14:00 0°C° 0 mm 1 mps 754 mmHg 88%
    15:00 0°C° 0 mm 1 mps 754 mmHg 89%
    16:00 -1°C° 0 mm 1 mps 754 mmHg 91%
    17:00 -1°C° 0 mm 1 mps 754 mmHg 92%
    18:00 -1°C° 0 mm 1 mps 755 mmHg 91%
    19:00 -1°C° 0 mm 1 mps 755 mmHg 91%
    20:00 -1°C° 0 mm 1 mps 755 mmHg 90%
    21:00 -1°C° 0 mm 1 mps 755 mmHg 89%
    22:00 -1°C° 0 mm 1 mps 755 mmHg 88%
    23:00 -1°C° 0 mm 1 mps 756 mmHg 87%

    21 December, Thursday

    Time Temperature Precipitation Wind Pressure Humidity
    00:00 -1°C° 0 mm 1 mps 756 mmHg 87%
    01:00 -1°C° 0 mm 1 mps 756 mmHg 87%
    02:00 -1°C° 0 mm 1 mps 756 mmHg 87%
    03:00 -1°C° 0 mm 1 mps 755 mmHg 88%
    04:00 -1°C° 0 mm 1 mps 755 mmHg 88%
    05:00 -2°C° 0 mm 1 mps 755 mmHg 89%
    06:00 -2°C° 0 mm 1 mps 755 mmHg 90%
    07:00 -2°C° 0 mm 1 mps 755 mmHg 91%
    08:00 -2°C° 0 mm 1 mps 755 mmHg 92%
    09:00 -4°C° 0 mm 2 mps 755 mmHg 90%
    10:00 -3°C° 0 mm 2 mps 755 mmHg 88%
    11:00 -3°C° 0 mm 2 mps 755 mmHg 86%
    12:00 -3°C° 0 mm 2 mps 754 mmHg 85%
    13:00 -2°C° 0 mm 2 mps 754 mmHg 85%
    14:00 -2°C° 0 mm 3 mps 753 mmHg 84%
    15:00 -4°C° 0 mm 3 mps 753 mmHg 85%
    16:00 -4°C° 0 mm 3 mps 752 mmHg 87%
    17:00 -4°C° 0 mm 3 mps 752 mmHg 89%
    18:00 -4°C° 0 mm 3 mps 752 mmHg 89%
    19:00 -4°C° 0 mm 3 mps 751 mmHg 89%
    20:00 -2°C° 0 mm 3 mps 751 mmHg 89%
    21:00 -2°C° 0.1 mm 3 mps 750 mmHg 90%
    22:00 -2°C° 0.1 mm 3 mps 750 mmHg 92%
    23:00 -2°C° 0.1 mm 3 mps 749 mmHg 93%
    Show more